Location: Unspecified
(0.0000°N, 0.0000°E)
Time: 18:47:35
(UTC+00:00)

deb USAF satellite/Agena D - Visible Passes

Search period start: 14 January 2025 00:00
Search period end: 24 January 2025 00:00
Orbit: 1736 x 5470 km, 89.5° (Epoch: 12 September)

Date Brightness Start Highest point End Pass type
(mag) Time Alt. Az. Time Alt. Az. Time Alt. Az.
14 Jan ? 03:47:45 10° SSE 04:00:08 64° E 04:09:13 10° N visible
14 Jan ? 18:43:00 10° NW 18:57:07 20° W 19:14:26 10° SW visible
15 Jan ? 04:36:21 10° S 04:48:39 63° W 04:57:45 10° NNW visible
16 Jan ? 02:43:34 10° SE 02:52:13 24° E 02:59:18 10° NE visible
16 Jan ? 05:27:08 10° SSW 05:36:39 27° W 05:44:19 10° NW visible
17 Jan ? 03:29:28 10° SSE 03:41:15 57° E 03:50:09 10° NNE visible
17 Jan ? 18:23:27 10° NW 18:38:58 22° W 18:58:08 10° SW visible
18 Jan ? 04:17:48 10° S 04:29:50 69° W 04:38:56 10° NNW visible
19 Jan ? 02:25:45 10° SE 02:33:19 21° E 02:39:45 10° NE visible
19 Jan ? 05:08:15 10° SSW 05:17:55 30° W 05:25:47 10° NW visible
20 Jan ? 03:11:10 10° SSE 03:22:20 51° E 03:31:04 10° NNE visible
20 Jan ? 18:04:06 10° NW 18:20:53 24° W 18:41:36 10° SW visible
21 Jan ? 03:59:14 10° S 04:10:59 76° W 04:20:04 10° N visible
22 Jan ? 02:08:03 10° SE 02:14:26 17° E 02:20:05 10° NE visible
22 Jan ? 04:49:22 10° SSW 04:59:10 33° W 05:07:03 11° NW visible
23 Jan ? 02:52:53 10° SSE 03:03:25 45° E 03:08:51 23° NNE visible
23 Jan ? 05:44:16 10° WSW 05:47:01 11° W 05:49:38 10° W visible
